Location: Hohenfelde
(53.8441°N, 9.6220°E)
Time: 12:35:51
(UTC+00:00)

ARIANE 5 R/B - Pass Details

Date: 14 July 2020
Orbit: 749 x 794 km, 98.6° (Epoch: 12 August)

Event Time Altitude Azimuth Distance (km) Brightness Sun altitude
Rises 01:09:34 0° 24° (NNE) 3,236 8.0 -11.4°
Reaches altitude 10° 01:12:22 10° 39° (NE) 2,312 6.4 -11.2°
Maximum altitude 01:16:21 23° 91° (E) 1,615 4.5 -11.0°
Drops below altitude 10° 01:20:20 10° 142° (SE) 2,321 4.7 -10.7°
Sets 01:23:08 0° 157° (SSE) 3,252 5.4 -10.5°
Enters shadow 01:23:10 - 157° (SSE) 3,267 5.4 -10.5°
